RWZ016 LLBG-UUDD

Flight info

Callsign RWZ016
Flight time N/A
Altitude 34000
Route N0450F340 SUVA1E SUVAS DCT TEZAK L324 SAFTA DCT TOMBI UA16 AYT UQ23 OSVEL UL619 MAKOL L619 WRN DCT VAMES DCT KENIN DCT HATIP DCT ROBTU DCT KEFIR DCT BALBA DCT BIGLU T406 RAVOK T52 BILRU BILR3L
Aircraft T204/M-VGDW/C

Departure

Time 2026-05-07 11:16
Airport Ben Gurion International Airport (LLBG)

Arrival

Time N/A
Airport Domodedovo International Airport (UUDD)
Time Latitude Longitude Altitude Speed Heading
2026-05-07 10:24 32.00144 34.87799 148 ft 0 kts 118°
2026-05-07 11:03 32.00145 34.87795 148 ft 2 kts 118°
2026-05-07 11:03 32.00153 34.87779 148 ft 2 kts 118°
2026-05-07 11:04 32.00157 34.87770 148 ft 2 kts 116°
2026-05-07 11:04 32.00161 34.87753 148 ft 2 kts 97°
2026-05-07 11:04 32.00161 34.87736 148 ft 2 kts 81°
2026-05-07 11:04 32.00161 34.87735 148 ft 2 kts 81°
2026-05-07 11:05 32.00159 34.87726 148 ft 2 kts 72°
2026-05-07 11:05 32.00156 34.87716 148 ft 2 kts 62°
2026-05-07 11:05 32.00147 34.87702 148 ft 2 kts 46°
2026-05-07 11:05 32.00138 34.87693 148 ft 0 kts 33°
2026-05-07 11:06 32.00134 34.87690 148 ft 0 kts 31°
2026-05-07 11:06 32.00135 34.87690 148 ft 0 kts 31°
2026-05-07 11:09 32.00135 34.87691 148 ft 0 kts 31°
2026-05-07 11:09 32.00139 34.87693 148 ft 3 kts 31°
2026-05-07 11:10 32.00183 34.87724 148 ft 11 kts 29°
2026-05-07 11:10 32.00281 34.87782 148 ft 19 kts 24°
2026-05-07 11:10 32.00417 34.87882 148 ft 26 kts 28°
2026-05-07 11:10 32.00565 34.87936 148 ft 17 kts 352°
2026-05-07 11:11 32.00661 34.87972 148 ft 12 kts 32°
2026-05-07 11:11 32.00737 34.88026 148 ft 14 kts 29°
2026-05-07 11:11 32.00831 34.88094 148 ft 17 kts 32°
2026-05-07 11:11 32.00940 34.88168 148 ft 17 kts 28°
2026-05-07 11:12 32.01034 34.88233 148 ft 15 kts 30°
2026-05-07 11:12 32.01128 34.88301 148 ft 16 kts 37°
2026-05-07 11:12 32.01225 34.88381 148 ft 18 kts 32°
2026-05-07 11:12 32.01328 34.88476 148 ft 19 kts 47°
2026-05-07 11:13 32.01415 34.88605 148 ft 21 kts 61°
2026-05-07 11:13 32.01477 34.88768 148 ft 22 kts 73°
2026-05-07 11:13 32.01513 34.88952 149 ft 23 kts 79°
2026-05-07 11:13 32.01542 34.89130 149 ft 19 kts 78°
2026-05-07 11:14 32.01615 34.89165 149 ft 9 kts 349°
2026-05-07 11:14 32.01632 34.89161 149 ft 0 kts 349°
2026-05-07 11:14 32.01674 34.89152 149 ft 13 kts 348°
2026-05-07 11:14 32.01745 34.89075 149 ft 14 kts 263°
2026-05-07 11:15 32.01735 34.89002 149 ft 6 kts 261°
2026-05-07 11:15 32.01719 34.88865 148 ft 44 kts 262°
2026-05-07 11:15 32.01626 34.88216 148 ft 114 kts 261°
2026-05-07 11:15 32.01432 34.87054 236 ft 168 kts 264°
2026-05-07 11:16 32.01192 34.85728 746 ft 158 kts 261°
2026-05-07 11:16 32.00936 34.84535 839 ft 144 kts 261°
2026-05-07 11:16 32.00697 34.83322 660 ft 178 kts 262°
2026-05-07 11:16 32.00383 34.81989 1867 ft 152 kts 255°